| time (UTC) | temp F | wind direction | speed MPH | gust MPH | rain 1hr in | rain 24hr in | rain mn in | humidity % | barometer mb |
| 20260504003023 | 63 | 276 | 5.0 | 18.0 | 0.00 | 0.15 | 0.00 | 64 | 1012.2 |
| 20260504002022 | 63 | 300 | 5.0 | 13.0 | 0.00 | 0.17 | 0.00 | 65 | 1012.1 |
| 20260504001019 | 62 | 279 | 5.0 | 10.0 | 0.00 | 0.17 | 0.00 | 65 | 1012.1 |
| 20260504000017 | 62 | 308 | 7.0 | 16.0 | 0.00 | 0.19 | 0.19 | 65 | 1012.2 |
| 20260503235035 | 61 | 309 | 4.0 | 13.0 | 0.00 | 0.19 | 0.19 | 66 | 1012.3 |
| 20260503234051 | 61 | 309 | 5.0 | 11.0 | 0.00 | 0.19 | 0.19 | 66 | 1012.3 |
| 20260503233028 | 60 | 272 | 5.0 | 13.0 | 0.00 | 0.19 | 0.19 | 67 | 1012.4 |
| 20260503232027 | 60 | 303 | 4.0 | 9.0 | 0.00 | 0.19 | 0.19 | 68 | 1012.5 |
| 20260503231024 | 60 | 312 | 3.0 | 10.0 | 0.00 | 0.19 | 0.19 | 68 | 1012.4 |
| 20260503230041 | 59 | 291 | 2.0 | 9.0 | 0.00 | 0.19 | 0.19 | 69 | 1012.4 |
| 20260503225019 | 59 | 288 | 4.0 | 9.0 | 0.00 | 0.19 | 0.19 | 70 | 1012.5 |
| 20260503224037 | 59 | 309 | 3.0 | 9.0 | 0.00 | 0.19 | 0.19 | 72 | 1012.4 |
| 20260503223035 | 58 | 275 | 1.0 | 3.0 | 0.00 | 0.19 | 0.19 | 73 | 1012.6 |
| 20260503222031 | 58 | 289 | 2.0 | 9.0 | 0.00 | 0.19 | 0.19 | 74 | 1012.6 |
| 20260503221029 | 58 | 287 | 1.0 | 3.0 | 0.00 | 0.19 | 0.19 | 75 | 1012.6 |
| 20260503220027 | 57 | 145 | 1.0 | 3.0 | 0.00 | 0.19 | 0.19 | 75 | 1012.5 |
| 20260503215024 | 57 | 321 | 0.0 | 3.0 | 0.00 | 0.19 | 0.19 | 75 | 1012.8 |
| 20260503214103 | 57 | 319 | 0.0 | 2.0 | 0.00 | 0.19 | 0.19 | 75 | 1012.6 |
| 20260503213019 | 57 | 256 | 0.0 | 4.0 | 0.00 | 0.19 | 0.19 | 75 | 1012.6 |
| 20260503212017 | 57 | 206 | 0.0 | 3.0 | 0.00 | 0.19 | 0.19 | 76 | 1012.4 |
| 20260503211033 | 57 | 238 | 0.0 | 3.0 | 0.00 | 0.19 | 0.19 | 75 | 1012.5 |
| 20260503210031 | 57 | 309 | 0.0 | 1.0 | 0.00 | 0.19 | 0.19 | 76 | 1012.5 |
| 20260503205029 | 57 | 254 | 0.0 | 4.0 | 0.00 | 0.19 | 0.19 | 77 | 1012.4 |
| 20260503204026 | 56 | 307 | 0.0 | 4.0 | 0.00 | 0.19 | 0.19 | 78 | 1012.4 |
| 20260503203025 | 56 | 79 | 0.0 | 2.0 | 0.00 | 0.19 | 0.19 | 79 | 1012.2 |
| 20260503202022 | 56 | 0.0 | 0.0 | 0.00 | 0.19 | 0.19 | 79 | 1012.2 | |
| 20260503201018 | 56 | 0.0 | 0.0 | 0.00 | 0.19 | 0.19 | 78 | 1012.2 | |
| 20260503200016 | 56 | 0.0 | 0.0 | 0.00 | 0.19 | 0.19 | 78 | 1012.3 | |
| 20260503195034 | 56 | 0.0 | 0.0 | 0.00 | 0.19 | 0.19 | 78 | 1012.3 | |
| 20260503194052 | 56 | 316 | 0.0 | 3.0 | 0.00 | 0.19 | 0.19 | 78 | 1012.3 |
| 20260503193030 | 57 | 0.0 | 0.0 | 0.00 | 0.19 | 0.19 | 78 | 1012.4 | |
| 20260503192027 | 57 | 0.0 | 0.0 | 0.00 | 0.19 | 0.19 | 78 | 1012.5 | |
| 20260503191049 | 57 | 0.0 | 0.0 | 0.00 | 0.19 | 0.19 | 78 | 1012.6 | |
| 20260503190022 | 57 | 0.0 | 0.0 | 0.00 | 0.19 | 0.19 | 78 | 1012.6 | |
| 20260503185024 | 57 | 290 | 0.0 | 2.0 | 0.00 | 0.19 | 0.19 | 78 | 1012.7 |
| 20260503184020 | 57 | 130 | 0.0 | 3.0 | 0.00 | 0.19 | 0.19 | 79 | 1012.6 |
| 20260503183038 | 57 | 167 | 0.0 | 2.0 | 0.00 | 0.19 | 0.19 | 79 | 1012.6 |
| 20260503182036 | 56 | 11 | 0.0 | 2.0 | 0.00 | 0.19 | 0.19 | 80 | 1012.7 |
| 20260503181034 | 56 | 104 | 0.0 | 1.0 | 0.00 | 0.19 | 0.19 | 80 | 1012.8 |
| 20260503180028 | 57 | 120 | 0.0 | 1.0 | 0.00 | 0.19 | 0.19 | 80 | 1012.9 |
| 20260503175025 | 57 | 0.0 | 0.0 | 0.00 | 0.19 | 0.19 | 80 | 1012.9 | |
| 20260503174023 | 57 | 186 | 0.0 | 1.0 | 0.00 | 0.19 | 0.19 | 79 | 1013.1 |
| 20260503173020 | 57 | 202 | 0.0 | 3.0 | 0.00 | 0.19 | 0.19 | 79 | 1013.1 |
| 20260503172021 | 57 | 267 | 0.0 | 1.0 | 0.00 | 0.19 | 0.19 | 79 | 1013.1 |
| 20260503131016 | 61 | 297 | 2.0 | 7.0 | 0.00 | 0.19 | 0.19 | 73 | 1013.8 |
| 20260503081025 | 64 | 320 | 1.0 | 3.0 | 0.00 | 0.19 | 0.19 | 69 | 1012.5 |
| 20260503072033 | 65 | 316 | 1.0 | 2.0 | 0.00 | 0.19 | 0.19 | 67 | 1012.3 |
| 20260503071031 | 65 | 323 | 1.0 | 4.0 | 0.00 | 0.19 | 0.19 | 70 | 1012.2 |
| 20260503055031 | 66 | 319 | 1.0 | 6.0 | 0.02 | 0.19 | 0.19 | 78 | 1011.8 |
| 20260503054028 | 65 | 327 | 3.0 | 8.0 | 0.02 | 0.19 | 0.19 | 78 | 1011.8 |
| 20260503053026 | 66 | 324 | 3.0 | 8.0 | 0.03 | 0.19 | 0.19 | 79 | 1011.7 |
| 20260503052043 | 66 | 329 | 2.0 | 7.0 | 0.02 | 0.17 | 0.17 | 80 | 1012.0 |
| 20260503051020 | 66 | 0.0 | 0.0 | 0.03 | 0.17 | 0.17 | 80 | 1011.7 | |
| 20260503050017 | 66 | 313 | 0.0 | 2.0 | 0.04 | 0.17 | 0.17 | 80 | 1011.8 |
| 20260503045041 | 66 | 314 | 0.0 | 2.0 | 0.04 | 0.17 | 0.17 | 80 | 1011.5 |
| 20260503044033 | 66 | 306 | 1.0 | 2.0 | 0.04 | 0.17 | 0.17 | 80 | 1011.6 |
| 20260503043030 | 67 | 315 | 1.0 | 9.0 | 0.03 | 0.15 | 0.15 | 79 | 1011.5 |
| 20260503042028 | 68 | 309 | 2.0 | 7.0 | 0.03 | 0.15 | 0.15 | 78 | 1011.2 |
| 20260503041046 | 69 | 304 | 3.0 | 9.0 | 0.01 | 0.13 | 0.13 | 76 | 1011.2 |
| 20260503040024 | 69 | 304 | 3.0 | 11.0 | 0.00 | 0.13 | 0.13 | 74 | 1011.1 |
| 20260503035021 | 70 | 294 | 3.0 | 8.0 | 0.00 | 0.13 | 0.13 | 74 | 1011.1 |
| 20260503034019 | 69 | 304 | 3.0 | 8.0 | 0.00 | 0.13 | 0.13 | 74 | 1011.1 |
| 20260503033016 | 69 | 312 | 3.0 | 13.0 | 0.00 | 0.13 | 0.13 | 74 | 1011.3 |
| 20260503032053 | 70 | 301 | 2.0 | 4.0 | 0.00 | 0.13 | 0.13 | 74 | 1011.4 |
| 20260503031031 | 70 | 315 | 5.0 | 16.0 | 0.00 | 0.13 | 0.13 | 73 | 1011.3 |
| 20260503030028 | 70 | 298 | 7.0 | 18.0 | 0.00 | 0.13 | 0.13 | 75 | 1011.5 |
| 20260503025026 | 69 | 292 | 5.0 | 19.0 | 0.00 | 0.13 | 0.13 | 78 | 1011.6 |
| 20260503024024 | 68 | 312 | 4.0 | 13.0 | 0.00 | 0.13 | 0.13 | 81 | 1011.5 |
| 20260503023021 | 68 | 261 | 3.0 | 11.0 | 0.01 | 0.13 | 0.13 | 83 | 1011.3 |
| 20260503022040 | 67 | 263 | 3.0 | 10.0 | 0.02 | 0.13 | 0.13 | 84 | 1011.5 |
| 20260503021016 | 66 | 296 | 2.0 | 9.0 | 0.04 | 0.13 | 0.13 | 85 | 1011.6 |
| 20260503020034 | 65 | 283 | 2.0 | 8.0 | 0.04 | 0.13 | 0.13 | 85 | 1011.6 |
| 20260503015031 | 65 | 232 | 1.0 | 10.0 | 0.05 | 0.13 | 0.13 | 85 | 1011.3 |
| 20260503014029 | 65 | 144 | 2.0 | 10.0 | 0.06 | 0.12 | 0.12 | 86 | 1011.1 |
| 20260503013026 | 65 | 231 | 2.0 | 9.0 | 0.08 | 0.11 | 0.11 | 86 | 1012.2 |
| 20260503012024 | 65 | 256 | 1.0 | 7.0 | 0.08 | 0.10 | 0.10 | 85 | 1012.2 |
| 20260503011022 | 65 | 124 | 1.0 | 6.0 | 0.07 | 0.09 | 0.09 | 85 | 1012.2 |
| 20260503010022 | 66 | 245 | 1.0 | 4.0 | 0.09 | 0.09 | 0.09 | 84 | 1012.2 |
| 20260503005017 | 66 | 177 | 1.0 | 6.0 | 0.07 | 0.07 | 0.07 | 84 | 1012.2 |
| 20260503004035 | 66 | 172 | 0.0 | 3.0 | 0.06 | 0.06 | 0.06 | 82 | 1012.4 |